[[{"header":{"parameterUnit":"m.s-1","parameterCategory":1,"la1":30.2991,"la2":30.254,"lo1":-89.0895,"lo2":-89.0444,"dy":0.0017,"dx":0.0017,"nx":28,"ny":28,"refTime":"2024-08-24T03:00:00:Z","depth":0,"parameterNumber":2,"parameterNumberName":"U-component_of_WINDS"},"data":[0,0,0,0,0,0,0,0,0,0,0,0,0,0,0,0,0,0,0,0,0,0,0,0,0,0,0,0,0,0,0,0,0,0,0,0,0,0,0,0,0,0,0,0,0,0,0,0,0,0,0,0,0,0,0,0,0,0,-3.7305,-3.7306,0,-3.7348,-3.7349,-3.7349,-3.7257,-3.7254,-3.7251,-3.7249,-3.729,-3.7293,-3.7297,0,0,0,0,0,0,0,0,0,0,0,0,0,-3.714,-3.7144,-3.7305,-3.7306,-3.7306,-3.7348,-3.7349,-3.7349,-3.7258,-3.7254,-3.7251,-3.7247,-3.7288,-3.7293,-3.7298,0,0,0,0,0,0,0,0,0,0,0,0,0,-3.72,-3.7145,-3.7305,-3.7266,-3.7263,-3.7348,-3.7349,-3.735,-3.7259,-3.7254,-3.725,-3.7246,-3.7287,-3.7293,-3.7298,-3.7423,0,0,-3.7316,-3.7318,0,0,0,0,0,0,0,0,-3.7197,-3.7207,-3.7271,-3.7269,-3.7265,-3.7293,-3.7305,-3.7374,-3.726,-3.726,-3.7249,-3.7243,-3.7294,-3.7299,-3.7317,-3.7425,-3.7426,-3.7316,-3.732,-3.7322,-3.7324,0,0,0,0,0,0,0,-3.7193,-3.7204,-3.7322,-3.7272,-3.7269,-3.7245,-3.7248,-3.7318,-3.7301,-3.726,-3.7253,-3.726,-3.7292,-3.7311,-3.7317,-3.7427,-3.7316,-3.7321,-3.7325,-3.7327,-3.7637,-3.7641,0,0,0,0,0,0,-3.7194,-3.7201,-3.7321,-3.7323,-3.722,-3.7251,-3.7255,-3.7289,-3.73,-3.7298,-3.7263,-3.7255,-3.7304,-3.731,-3.7318,-3.7462,-3.7322,-3.7328,-3.7331,-3.7632,-3.7638,-3.7643,0,0,0,0,0,0,-3.7191,-3.7206,-3.7319,-3.7261,-3.7273,-3.7259,-3.7297,-3.7292,-3.7311,-3.7303,-3.7299,-3.7287,-3.73,-3.731,-3.7397,-3.7462,-3.733,-3.7336,-3.7626,-3.7634,-3.764,-3.7753,0,0,0,0,0,0,-3.7187,-3.7205,-3.7253,-3.7263,-3.7277,-3.7399,-3.7301,-3.7296,-3.7322,-3.7312,-3.7324,-3.7322,-3.7298,-3.7389,-3.7403,-3.7468,-3.734,-3.762,-3.763,-3.7638,-3.7744,-3.7764,-3.7781,0,0,0,0,0,-3.7181,-3.7284,-3.7256,-3.7271,-3.7337,-3.7403,-3.7411,-3.7381,-3.7328,-3.7375,-3.737,-3.7322,-3.7454,-3.7399,-3.7413,-3.7482,-3.7616,-3.7627,-3.7637,-3.7735,-3.776,-3.778,0,0,0,0,0,0,-3.7282,-3.7284,-3.7254,-3.7362,-3.7383,-3.7387,-3.7446,-3.7408,-3.7444,-3.7433,-3.7394,-3.7398,-3.7492,-3.7496,-3.7434,-3.7601,-3.7526,-3.754,-3.7595,-3.7618,-3.7636,-3.7632,-3.7345,0,0,0,0,0,-3.7317,-3.7371,-3.737,-3.7466,-3.7478,-3.7461,-3.7488,-3.7464,-3.7483,-3.7491,-3.7492,-3.7512,-3.7558,-3.7588,-3.763,-3.7745,-3.7745,-3.7799,-3.7817,-3.7832,-3.7844,-3.7902,-3.7926,-3.7678,-3.7678,-3.7678,0,0,-3.7389,-3.7397,-3.7433,-3.7486,-3.7499,-3.7555,-3.7468,-3.7531,-3.7571,-3.75,-3.7582,-3.7584,-3.7603,-3.7704,-3.7748,-3.771,-3.7913,-3.7846,-3.7858,-3.7862,-3.7916,-3.7939,-3.796,-3.7685,-3.7684,-3.7683,0,0,-3.7548,-3.7561,-3.7641,-3.7656,-3.7678,-3.7665,-3.7685,-3.7695,-3.7693,-3.7775,-3.7722,-3.7769,-3.785,-3.7865,-3.7883,-3.8048,-3.8004,-3.8063,-3.8158,-3.8215,-3.8235,-3.8252,-3.8308,-3.8329,-3.8076,-3.8076,-3.8076,0,-3.7635,-3.7717,-3.7687,-3.7753,-3.7776,-3.7716,-3.7795,-3.7811,-3.7845,-3.7862,-3.7819,-3.7918,-3.7927,-3.8029,-3.8069,-3.8087,-3.8106,-3.806,-3.8235,-3.8252,-3.8267,-3.832,-3.8342,-3.8083,-3.8082,-3.8081,-3.8081,0,-3.7821,-3.788,-3.7941,-3.7976,-3.8007,-3.808,-3.8058,-3.8093,-3.8066,-3.8058,-3.8141,-3.815,-3.8192,-3.8215,-3.819,-3.8313,-3.8288,-3.8242,-3.8164,-3.8298,-3.8347,-3.8367,-3.8092,-3.809,-3.8088,-3.8086,0,0,-3.8043,-3.806,-3.8083,-3.8097,-3.8116,-3.816,-3.8229,-3.827,-3.83,-3.8326,-3.8381,-3.845,-3.8406,-3.8427,-3.8403,-3.8454,-3.8581,-3.84,-3.84,-3.8431,-3.8714,-3.8748,-3.8772,-3.8553,-3.8557,-3.856,-3.8712,0,-3.8199,-3.8318,-3.8292,-3.8409,-3.8461,-3.8405,-3.8465,-3.8482,-3.8477,-3.8519,-3.8513,-3.8561,-3.8501,-3.8513,-3.8561,-3.8555,-3.8637,-3.8545,-3.8602,-3.8604,-3.8596,-3.8798,-3.8833,-3.8976,-3.8731,-3.8734,-3.8737,0,-3.8395,-3.8429,-3.8551,-3.856,-3.8581,-3.8636,-3.867,-3.8713,-3.8731,-3.8723,-3.8747,-3.8713,-3.8779,-3.8704,-3.8794,-3.8732,-3.8754,-3.8755,-3.876,-3.8761,-3.8676,-3.8802,-3.9021,-3.9041,-3.8767,-3.8765,-3.8762,0,-3.8541,-3.8617,-3.8699,-3.8713,-3.8727,-3.8766,-3.8774,-3.8788,-3.8814,-3.8844,-3.886,-3.8899,-3.8919,-3.8948,-3.8925,-3.8872,-3.9018,-3.8941,-3.9011,-3.9012,-3.9042,-3.904,-3.9265,-3.9062,-3.9062,-3.9062,-3.9061,0,-3.8715,-3.8792,-3.8764,-3.8815,-3.8898,-3.8867,-3.895,-3.8951,-3.8964,-3.9012,-3.8966,-3.9012,-3.898,-3.9023,-3.9006,-3.9081,-3.9092,-3.9086,-3.9079,-3.9088,-3.9088,-3.91,-3.9088,-3.9067,-3.9066,-3.9065,-3.9064,0,-3.8891,-3.8876,-3.8962,-3.8968,-3.8971,-3.9032,-3.9036,-3.9082,-3.9074,-3.9136,-3.9148,-3.9135,-3.9183,-3.9163,-3.9214,-3.9202,-3.9299,-3.9281,-3.9293,-3.9287,-3.9357,-3.935,-3.9595,-3.9624,-3.9406,-3.9408,-3.941,0,-3.9002,-3.9059,-3.9072,-3.9101,-3.9112,-3.916,-3.9186,-3.9158,-3.9187,-3.9212,-3.9255,-3.9299,-3.9333,-3.9412,-3.9406,-3.9444,-3.9425,-3.9509,-3.943,-3.9437,-3.9423,-3.9418,-3.9423,-3.9523,-3.9526,-3.9528,-3.9529,0,-3.9199,-3.9188,-3.9228,-3.9266,-3.9299,-3.9327,-3.9351,-3.9378,-3.9351,-3.9386,-3.9435,-3.9461,-3.9513,-3.9557,-3.9591,-3.9597,-3.9558,-3.9555,-3.9572,-3.958,-3.9583,-3.9579,-3.9332,-3.9548,-3.9546,-3.9545,-3.9544,-3.9543,-3.9343,-3.939,-3.9406,-3.9452,-3.9467,-3.9491,-3.9533,-3.9531,-3.9571,-3.9611,-3.9593,-3.9649,-3.9664,-3.9706,-3.9718,-3.976,-3.9727,-3.9754,-3.976,-3.9766,-3.9774,-3.9579,-3.9767,-3.9766,-3.9766,-3.9765,-3.9765,0,-3.9534,-3.9542,-3.9585,-3.962,-3.9656,-3.9618,-3.9642,-3.9674,-3.9724,-3.9743,-3.9777,-3.9832,-3.9874,-3.9872,-3.9911,-3.9945,-3.9928,-3.9956,-3.9951,-3.9953,-3.9803,-3.9782,-3.9969,-3.9969,-3.9968,-3.9968,-3.9968,-3.9968,-3.9638,-3.9716,-3.9707,-3.9791,-3.9798,-3.9853,-3.987,-3.989,-3.9904,-3.9968,-4.0003,-4.0002,-4.0011,-4.005,-4.0087,-4.0085,-4.01,-4.0134,-4.0125,-3.9984,-3.9964,-3.9944,-3.9924,-4.0138,-4.0138,-4.0271,-4.0272,-4.0273]},{"header":{"parameterUnit":"m.s-1","parameterCategory":1,"la1":30.2991,"la2":30.254,"lo1":-89.0895,"lo2":-89.0444,"dy":0.0017,"dx":0.0017,"nx":28,"ny":28,"refTime":"2024-08-24T03:00:00:Z","depth":0,"parameterNumber":3,"parameterNumberName":"V-component_of_WINDS"},"data":[0,0,0,0,0,0,0,0,0,0,0,0,0,0,0,0,0,0,0,0,0,0,0,0,0,0,0,0,0,0,0,0,0,0,0,0,0,0,0,0,0,0,0,0,0,0,0,0,0,0,0,0,0,0,0,0,0,0,-0.0872,-0.0872,0,-0.0928,-0.0929,-0.093,-0.0992,-0.0993,-0.0994,-0.0995,-0.1053,-0.1054,-0.1055,0,0,0,0,0,0,0,0,0,0,0,0,0,-0.0817,-0.0818,-0.0871,-0.0872,-0.0873,-0.0928,-0.0929,-0.093,-0.0992,-0.0993,-0.0994,-0.0995,-0.1053,-0.1054,-0.1055,0,0,0,0,0,0,0,0,0,0,0,0,0,-0.0854,-0.0818,-0.0871,-0.0911,-0.0915,-0.0928,-0.0929,-0.093,-0.0992,-0.0993,-0.0995,-0.0996,-0.1053,-0.1054,-0.1055,-0.1034,0,0,-0.1058,-0.1059,0,0,0,0,0,0,0,0,-0.0852,-0.0856,-0.0904,-0.0908,-0.0913,-0.0955,-0.0931,-0.0965,-0.0992,-0.0963,-0.0995,-0.0997,-0.102,-0.1023,-0.1031,-0.1037,-0.104,-0.1058,-0.1059,-0.106,-0.106,0,0,0,0,0,0,0,-0.0849,-0.0854,-0.0894,-0.0905,-0.091,-0.0925,-0.0932,-0.0938,-0.0983,-0.0965,-0.097,-0.0976,-0.1022,-0.103,-0.1033,-0.1041,-0.1058,-0.1059,-0.106,-0.106,-0.1032,-0.103,0,0,0,0,0,0,-0.084,-0.0851,-0.0892,-0.0896,-0.0885,-0.0925,-0.0933,-0.094,-0.0983,-0.0991,-0.0975,-0.0978,-0.1027,-0.1032,-0.1035,-0.1013,-0.106,-0.1061,-0.1061,-0.1033,-0.1031,-0.103,0,0,0,0,0,0,-0.0839,-0.0844,-0.089,-0.0875,-0.0882,-0.0925,-0.0932,-0.094,-0.0948,-0.099,-0.0998,-0.0974,-0.1029,-0.1034,-0.1034,-0.1016,-0.1061,-0.1062,-0.1035,-0.1033,-0.1031,-0.0969,0,0,0,0,0,0,-0.0837,-0.0843,-0.0835,-0.0874,-0.0882,-0.0887,-0.0931,-0.094,-0.095,-0.0955,-0.0992,-0.0999,-0.103,-0.1032,-0.1035,-0.1018,-0.1063,-0.1037,-0.1034,-0.1031,-0.0973,-0.0965,-0.0959,0,0,0,0,0,-0.0835,-0.0816,-0.0835,-0.0839,-0.0874,-0.0886,-0.0891,-0.0927,-0.0948,-0.0941,-0.0968,-0.0998,-0.1018,-0.1031,-0.1035,-0.1019,-0.1038,-0.1035,-0.1032,-0.0976,-0.0967,-0.0959,0,0,0,0,0,0,-0.0774,-0.0822,-0.0843,-0.0836,-0.0856,-0.0897,-0.0889,-0.0916,-0.0931,-0.0936,-0.098,-0.0988,-0.0982,-0.1001,-0.1015,-0.1001,-0.1032,-0.103,-0.0989,-0.098,-0.0973,-0.0968,-0.1064,0,0,0,0,0,-0.076,-0.0766,-0.0807,-0.0797,-0.0806,-0.0846,-0.0852,-0.0878,-0.0901,-0.091,-0.0937,-0.0959,-0.097,-0.0976,-0.0989,-0.0976,-0.0985,-0.0967,-0.096,-0.0953,-0.095,-0.0944,-0.0937,-0.102,-0.102,-0.102,0,0,-0.0731,-0.0757,-0.0759,-0.0786,-0.0805,-0.081,-0.0853,-0.0856,-0.086,-0.0911,-0.0913,-0.0933,-0.096,-0.0953,-0.0952,-0.0969,-0.0929,-0.0949,-0.0944,-0.0945,-0.094,-0.0932,-0.0925,-0.1017,-0.1018,-0.1018,0,0,-0.068,-0.0701,-0.0694,-0.0712,-0.074,-0.0766,-0.0765,-0.0801,-0.0816,-0.0818,-0.0856,-0.0862,-0.088,-0.0897,-0.0909,-0.0863,-0.0891,-0.0866,-0.0828,-0.0822,-0.0815,-0.081,-0.0793,-0.0786,-0.0863,-0.0863,-0.0863,0,-0.064,-0.0649,-0.0687,-0.0688,-0.0699,-0.0745,-0.0738,-0.0754,-0.0784,-0.0791,-0.0809,-0.0832,-0.0854,-0.0851,-0.084,-0.0848,-0.0847,-0.0862,-0.0813,-0.0808,-0.0803,-0.0787,-0.0781,-0.086,-0.086,-0.086,-0.0861,0,-0.0597,-0.0603,-0.0594,-0.0622,-0.0632,-0.0629,-0.0667,-0.0672,-0.0697,-0.0721,-0.0722,-0.075,-0.0768,-0.077,-0.0794,-0.077,-0.078,-0.0805,-0.0837,-0.0791,-0.0777,-0.0771,-0.0855,-0.0856,-0.0857,-0.0858,0,0,-0.051,-0.0559,-0.0555,-0.0568,-0.0602,-0.0607,-0.0606,-0.0624,-0.0627,-0.0646,-0.0646,-0.066,-0.0684,-0.0696,-0.0723,-0.0717,-0.0678,-0.0743,-0.0745,-0.0729,-0.0653,-0.0633,-0.0625,-0.0698,-0.0697,-0.0696,-0.065,0,-0.0464,-0.0465,-0.0499,-0.049,-0.0496,-0.0539,-0.0538,-0.0559,-0.0581,-0.0589,-0.0614,-0.0623,-0.0654,-0.0661,-0.0658,-0.0684,-0.0663,-0.0688,-0.0697,-0.0697,-0.0688,-0.0618,-0.0598,-0.0553,-0.0645,-0.0644,-0.0644,0,-0.0411,-0.0426,-0.0418,-0.0452,-0.0455,-0.0454,-0.0472,-0.0479,-0.0504,-0.052,-0.0534,-0.0564,-0.0565,-0.0596,-0.0598,-0.0613,-0.062,-0.0633,-0.0632,-0.0634,-0.0667,-0.0617,-0.054,-0.0533,-0.0636,-0.0636,-0.0637,0,-0.0346,-0.0365,-0.0363,-0.0373,-0.0412,-0.041,-0.0426,-0.0452,-0.046,-0.0476,-0.0482,-0.0498,-0.0507,-0.0519,-0.0552,-0.0572,-0.055,-0.0584,-0.0563,-0.0562,-0.0556,-0.0556,-0.0478,-0.0561,-0.0562,-0.0562,-0.0562,0,-0.0291,-0.0284,-0.0334,-0.0332,-0.0325,-0.0365,-0.0357,-0.0378,-0.04,-0.0403,-0.0442,-0.0443,-0.0488,-0.0495,-0.0522,-0.0518,-0.0522,-0.0536,-0.0542,-0.0531,-0.053,-0.0535,-0.0539,-0.056,-0.056,-0.0561,-0.0561,0,-0.0217,-0.0251,-0.025,-0.0288,-0.0297,-0.029,-0.0322,-0.0322,-0.0347,-0.0349,-0.0352,-0.0391,-0.0401,-0.0436,-0.0455,-0.0472,-0.046,-0.0475,-0.0452,-0.0456,-0.0433,-0.0435,-0.0356,-0.0347,-0.0437,-0.0436,-0.0435,0,-0.0179,-0.0175,-0.0211,-0.0216,-0.023,-0.0237,-0.0246,-0.0285,-0.0292,-0.0318,-0.0315,-0.0328,-0.034,-0.0353,-0.0383,-0.0397,-0.0412,-0.0383,-0.0414,-0.0403,-0.041,-0.0409,-0.0409,-0.0376,-0.0375,-0.0374,-0.0373,0,-0.0108,-0.0125,-0.0135,-0.0151,-0.016,-0.0174,-0.0191,-0.0193,-0.0236,-0.0242,-0.0252,-0.0262,-0.028,-0.0292,-0.0311,-0.0328,-0.0357,-0.0363,-0.0359,-0.0347,-0.0334,-0.034,-0.0433,-0.0365,-0.0365,-0.0366,-0.0366,-0.0367,-0.0051,-0.0048,-0.0073,-0.0083,-0.01,-0.0115,-0.0116,-0.0141,-0.015,-0.0168,-0.019,-0.0198,-0.0222,-0.025,-0.0265,-0.0271,-0.0287,-0.0281,-0.0279,-0.0277,-0.0271,-0.0333,-0.0274,-0.0275,-0.0275,-0.0275,-0.0275,0,0.0019,0.0001,-0.0008,-0.003,-0.0037,-0.0064,-0.0084,-0.0089,-0.0095,-0.0115,-0.0126,-0.0137,-0.0149,-0.0179,-0.0194,-0.0193,-0.0206,-0.0195,-0.0195,-0.0198,-0.0257,-0.0258,-0.0184,-0.0184,-0.0184,-0.0184,-0.0184,-0.0184,0.0055,0.0058,0.0039,0.0033,0.0015,0.0008,-0.0001,-0.0015,-0.0031,-0.0041,-0.0051,-0.0071,-0.0095,-0.0111,-0.0123,-0.0132,-0.0135,-0.0119,-0.0132,-0.0185,-0.0194,-0.0203,-0.0204,-0.012,-0.0119,-0.0073,-0.0072,-0.0072]}]]